Flag for France Weather past 2 weeks in Douai, France

Now
36 °F

Clear.


Feels Like: 28 °F
Forecast: 36 / 43 °F
Wind: 10 mph from Southwest

Location: Lille Airport

Current Time: Jan 28, 2015 at 11:56:23 PM

Latest Report: Jan 28, 2015 at 11:30 PM


Visibility: N/A

Pressure: 29.56 "Hg

Humidity: 75%

Dew point: 28 °F

Location of DouaiLocation

Historic Weather in Douai — Graph

°F

Douai temperature yesterday

Maximum temperature yesterday: 45 °F (at 2:30 PM)
Minimum temperature yesterday: 34 °F (at 6:30 AM)
Average temperature yesterday: 40 °F

Past Weeks' High & Low Weather Summary

 TemperatureHumidityPressure
High52 °F (Jan 15, 10:30 AM)100% (Jan 16, 9:30 PM)30.48 "Hg (Jan 16, 9:30 PM)
Low27 °F (Jan 23, 10:30 PM)61% (Jan 17, 3:00 PM)29.36 "Hg (Jan 15, 2:00 PM)
Average38 °F89%29.98 "Hg
* Reported Jan 13 11:00 PM — Jan 28 11:00 PM, Douai, Weather by CustomWeather, © 2014

Note: Actual official high and low records may vary slightly from our data, if they occured in-between our weather recording intervals... More about our weather records

Advertising

Douai weather history for previous 24 hours

 ConditionsComfort  
Time TempWeatherWind HumidityBarometerVisibility
11:00 PM
Jan 28
36 °FClear.12 mph75%29.56 "Hg10 mi
10:30 PM36 °FClear.12 mph75%29.59 "Hg10 mi
10:00 PM37 °FClear.13 mph75%29.59 "Hg10 mi
9:30 PM37 °FClear.8 mph75%29.59 "Hg10 mi
9:00 PM37 °FClear.12 mph75%29.59 "Hg10 mi
8:30 PM39 °FClear.12 mph70%29.59 "Hg10 mi
8:00 PM39 °FClear.13 mph70%29.59 "Hg10 mi
7:35 PM39 °FClear.14 mph70%29.59 "Hg10 mi
7:00 PM41 °FClear.13 mph66%29.59 "Hg10 mi
6:30 PM41 °FPassing clouds.13 mph87%29.59 "HgN/A
6:00 PM43 °FPartly cloudy.13 mph87%29.56 "HgN/A
5:30 PM43 °FBroken clouds.15 mph87%29.56 "HgN/A
5:00 PM45 °FLight rain. Partly sunny.24 mph81%29.53 "HgN/A
4:30 PM46 °FPartly sunny.28 mph82%29.53 "HgN/A
4:00 PM46 °FSprinkles. Broken clouds.21 mph93%29.53 "Hg3 mi
3:30 PM46 °FPartly sunny.23 mph93%29.53 "HgN/A
3:00 PM45 °FDrizzle. Low clouds.25 mph100%29.53 "Hg4 mi
2:30 PM45 °FDrizzle. Partly sunny.22 mph93%29.56 "Hg5 mi
2:00 PM45 °FDrizzle. Partly sunny.24 mph87%29.59 "Hg2 mi
1:30 PM45 °FDrizzle. Partly sunny.26 mph87%29.62 "HgN/A
1:00 PM45 °FPartly sunny.25 mph87%29.68 "HgN/A
12:30 PM43 °FLight rain. Partly sunny.24 mph93%29.68 "HgN/A
12:00 PM43 °FPartly sunny.24 mph87%29.71 "HgN/A
11:30 AM43 °FPartly sunny.22 mph87%29.77 "HgN/A
11:00 AM43 °FPartly sunny.20 mph87%29.80 "HgN/A
10:30 AM43 °FPartly sunny.21 mph87%29.83 "HgN/A
10:00 AM43 °FBroken clouds.20 mph87%29.83 "HgN/A
9:30 AM43 °FPartly sunny.18 mph87%29.86 "HgN/A
9:00 AM43 °FBroken clouds.17 mph87%29.89 "HgN/A
8:30 AM43 °FPartly sunny.15 mph87%29.89 "HgN/A
8:00 AM43 °FPartly cloudy.14 mph93%29.92 "HgN/A
7:30 AM43 °FLight rain. Overcast.15 mph93%29.95 "HgN/A
7:00 AM41 °FLight rain. Mostly cloudy.13 mph100%29.98 "HgN/A
6:30 AM43 °FLight rain. Overcast.14 mph87%29.98 "HgN/A
6:00 AM43 °FMostly cloudy.13 mph87%30.01 "HgN/A
5:30 AM43 °FMostly cloudy.13 mph87%30.01 "HgN/A
5:00 AM41 °FMostly cloudy.12 mph93%30.01 "HgN/A
4:30 AM41 °FMostly cloudy.13 mph93%30.04 "HgN/A
4:00 AM43 °FOvercast.13 mph87%30.07 "HgN/A
3:30 AM41 °FOvercast.12 mph93%30.07 "HgN/A
3:00 AM41 °FOvercast.10 mph93%30.09 "HgN/A
2:30 AM43 °FOvercast.10 mph87%30.09 "HgN/A
2:00 AM43 °FOvercast.9 mph87%30.12 "HgN/A
1:30 AM43 °FOvercast.10 mph87%30.15 "HgN/A
1:00 AM43 °FOvercast.12 mph87%30.15 "HgN/A
12:30 AM43 °FOvercast.9 mph87%30.18 "HgN/A
12:00 AM41 °FOvercast.6 mph93%30.21 "HgN/A
11:30 PM
Jan 27
43 °FOvercast.9 mph87%30.21 "HgN/A
11:00 PM43 °FPassing clouds.7 mph87%30.21 "HgN/A
Weather by CustomWeather, © 2014

See weather overviewHow to use our weather pages